Dewpoint
48 45 44 42 41 41 38 36 36 36 35 35 35 34 33 31 31 34 34 35 35 34
47 45 44 42 40 38 38 35 36 36 35 34 34 34 33 31 31 32 32 33 34 32
46 44 42 40 38 38 38 35 35 36 34 33 33 33 32 31 32 31 30 29 31 31
45 43 41 39 38 39 38 35 34 34 33 32 32 32 32 31 31 31 30 30 30 30
45 44 41 40 39 39 37 35 34 34 32 32 31 31 31 30 29 30 29 29 29 28
44 43 43 41 39 38 36 35 35 34 32 32 32 30 30 30 30 29 28 28 28 27
44 44 43 41 40 38 37 35 34 33 32 32 32 30 29 28 29 28 27 28 27 26
45 44 43 41 39 37 35 34 33 34 34 34 32 30 30 28 28 27 26 26 24 25
43 42 41 40 38 36 34 34 34 34 34 34 34 33 32 30 28 26 25 25 23 24
42 40 39 39 36 35 34 34 34 34 34 33 33 34 33 31 30 29 32 32 28 26
41 38 37 36 35 35 34 33 33 32 32 35 35 33 32 30 31 33 31 31 32 31
39 36 35 34 34 35 34 34 34 34 35 34 32 34 32 28 27 26 28 29 30 29
38 36 35 36 36 35 34 34 33 33 36 33 31 34 32 28 24 22 21 22 23 24
37 36 35 35 34 34 34 33 32 35 33 31 30 33 33 29 24 23 22 22 21 23
Lifted_Index
5 5 5 5 5 5 6 8 9 9 10 10 10 11 12 12 13 13 13 13 13 13
4 4 4 4 4 4 5 7 8 9 10 10 11 11 11 12 13 13 13 13 12 12
3 2 2 2 2 3 4 5 6 7 9 9 10 11 11 12 13 13 13 13 12 12
1 1 1 1 1 2 3 4 5 7 8 8 10 11 12 12 12 12 12 12 12 13
0 0 0 0 0 1 2 3 5 6 7 8 9 11 12 12 12 12 12 12 12 13
0 0 0 0 0 0 1 2 4 5 6 7 9 11 12 12 12 12 12 12 12 13
-0 -0 -0 0 0 0 1 2 3 5 6 8 10 12 12 12 12 12 12 12 12 13
-0 -0 -0 0 0 0 1 2 4 5 5 7 9 11 12 13 13 12 12 12 12 13
0 0 0 0 0 1 1 2 3 4 5 6 8 10 12 13 13 13 12 12 12 12
1 1 1 0 1 1 2 3 4 4 5 5 7 9 12 13 13 13 13 13 12 12
1 1 1 1 1 1 2 3 4 4 5 6 7 9 12 13 13 13 13 13 13 13
1 1 1 1 1 1 2 3 4 5 6 6 8 10 12 13 13 13 13 13 13 13
1 1 1 1 1 2 2 3 4 5 6 7 9 11 12 12 12 12 13 13 13 14
1 1 1 1 2 2 3 3 4 5 6 7 9 11 12 12 12 12 13 13 13 14